Meteo orario Abaran

Oggi, 20 Giugno, Domenica

Tempo Temperatura Precipitazioni Vento Pressione Umidità
00:00 +22°C° 0 mm 1 m/s 726 mm Hg 70%
01:00 +22°C° 0 mm 1 m/s 726 mm Hg 71%
02:00 +21°C° 0 mm 1 m/s 725 mm Hg 73%
03:00 +21°C° 0 mm 1 m/s 725 mm Hg 74%
04:00 +21°C° 0 mm 1 m/s 725 mm Hg 71%
05:00 +22°C° 0 mm 1 m/s 725 mm Hg 68%
06:00 +22°C° 0 mm 1 m/s 725 mm Hg 63%
07:00 +23°C° 0 mm 2 m/s 725 mm Hg 56%
08:00 +24°C° 0 mm 2 m/s 725 mm Hg 49%
09:00 +25°C° 0 mm 2 m/s 726 mm Hg 42%
10:00 +26°C° 0 mm 3 m/s 725 mm Hg 37%
11:00 +28°C° 0 mm 3 m/s 725 mm Hg 32%
12:00 +29°C° 0 mm 3 m/s 725 mm Hg 27%
13:00 +30°C° 0 mm 3 m/s 725 mm Hg 25%
14:00 +30°C° 0 mm 3 m/s 725 mm Hg 23%
15:00 +31°C° 0 mm 3 m/s 724 mm Hg 21%
16:00 +32°C° 0 mm 4 m/s 724 mm Hg 24%
17:00 +30°C° 0 mm 4 m/s 724 mm Hg 27%
18:00 +29°C° 0 mm 4 m/s 724 mm Hg 30%
19:00 +28°C° 0 mm 4 m/s 724 mm Hg 34%
20:00 +27°C° 0 mm 3 m/s 725 mm Hg 38%
21:00 +25°C° 0 mm 3 m/s 725 mm Hg 42%
22:00 +25°C° 0 mm 2 m/s 725 mm Hg 44%
23:00 +24°C° 0 mm 2 m/s 725 mm Hg 46%

Domani, 21 Giugno, Lunedi

Tempo Temperatura Precipitazioni Vento Pressione Umidità
00:00 +24°C° 0 mm 2 m/s 724 mm Hg 47%
01:00 +23°C° 0 mm 2 m/s 724 mm Hg 50%
02:00 +21°C° 0 mm 2 m/s 724 mm Hg 53%
03:00 +21°C° 0 mm 2 m/s 724 mm Hg 56%
04:00 +21°C° 0 mm 2 m/s 724 mm Hg 57%
05:00 +21°C° 0 mm 2 m/s 725 mm Hg 57%
06:00 +22°C° 0 mm 1 m/s 725 mm Hg 58%
07:00 +23°C° 0 mm 1 m/s 725 mm Hg 53%
08:00 +24°C° 0 mm 1 m/s 725 mm Hg 49%
09:00 +25°C° 0 mm 1 m/s 725 mm Hg 45%
10:00 +27°C° 0 mm 2 m/s 725 mm Hg 42%
11:00 +28°C° 0 mm 2 m/s 725 mm Hg 38%
12:00 +29°C° 0 mm 2 m/s 725 mm Hg 35%
13:00 +29°C° 0 mm 3 m/s 724 mm Hg 35%
14:00 +30°C° 0 mm 5 m/s 724 mm Hg 35%
15:00 +30°C° 0 mm 6 m/s 724 mm Hg 34%
16:00 +29°C° 0 mm 6 m/s 724 mm Hg 37%
17:00 +29°C° 0 mm 5 m/s 724 mm Hg 39%
18:00 +28°C° 0 mm 4 m/s 724 mm Hg 42%
19:00 +27°C° 0 mm 3 m/s 724 mm Hg 44%
20:00 +26°C° 0 mm 2 m/s 725 mm Hg 46%
21:00 +25°C° 0 mm 1 m/s 725 mm Hg 48%
22:00 +25°C° 0 mm 2 m/s 725 mm Hg 46%
23:00 +24°C° 0 mm 3 m/s 725 mm Hg 43%

Dopodomani, 22 Giugno, Martedi

Tempo Temperatura Precipitazioni Vento Pressione Umidità
00:00 +22°C° 0 mm 4 m/s 725 mm Hg 40%
01:00 +22°C° 0 mm 3 m/s 725 mm Hg 41%
02:00 +21°C° 0 mm 3 m/s 725 mm Hg 42%
03:00 +20°C° 0 mm 3 m/s 725 mm Hg 44%
04:00 +20°C° 0 mm 3 m/s 725 mm Hg 44%
05:00 +21°C° 0 mm 3 m/s 725 mm Hg 45%
06:00 +21°C° 0 mm 2 m/s 726 mm Hg 46%
07:00 +22°C° 0 mm 3 m/s 726 mm Hg 41%
08:00 +25°C° 0 mm 3 m/s 726 mm Hg 37%
09:00 +26°C° 0 mm 3 m/s 726 mm Hg 33%
10:00 +27°C° 0 mm 2 m/s 726 mm Hg 31%
11:00 +28°C° 0 mm 2 m/s 726 mm Hg 28%
12:00 +29°C° 0 mm 1 m/s 726 mm Hg 26%
13:00 +29°C° 0 mm 3 m/s 726 mm Hg 26%
14:00 +30°C° 0 mm 4 m/s 725 mm Hg 27%
15:00 +30°C° 0 mm 6 m/s 725 mm Hg 27%
16:00 +29°C° 0 mm 6 m/s 725 mm Hg 31%
17:00 +28°C° 0 mm 7 m/s 725 mm Hg 34%
18:00 +27°C° 0 mm 7 m/s 725 mm Hg 38%
19:00 +26°C° 0 mm 6 m/s 726 mm Hg 42%
20:00 +25°C° 0 mm 4 m/s 726 mm Hg 45%
21:00 +24°C° 0 mm 2 m/s 726 mm Hg 49%
22:00 +23°C° 0 mm 2 m/s 726 mm Hg 52%
23:00 +23°C° 0 mm 2 m/s 726 mm Hg 55%

23 Giugno, Mercoledi

Tempo Temperatura Precipitazioni Vento Pressione Umidità
00:00 +21°C° 0 mm 2 m/s 726 mm Hg 57%
01:00 +22°C° 0 mm 1 m/s 726 mm Hg 59%
02:00 +21°C° 0 mm 1 m/s 726 mm Hg 61%
03:00 +21°C° 0 mm 1 m/s 726 mm Hg 63%
04:00 +21°C° 0 mm 1 m/s 726 mm Hg 63%
05:00 +21°C° 0 mm 1 m/s 727 mm Hg 63%
06:00 +22°C° 0 mm 1 m/s 727 mm Hg 63%
07:00 +23°C° 0 mm 1 m/s 727 mm Hg 59%
08:00 +24°C° 0 mm 1 m/s 727 mm Hg 55%
09:00 +25°C° 0 mm 1 m/s 727 mm Hg 51%
10:00 +26°C° 0 mm 2 m/s 728 mm Hg 45%
11:00 +27°C° 0 mm 2 m/s 728 mm Hg 40%
12:00 +29°C° 0 mm 3 m/s 728 mm Hg 35%
13:00 +29°C° 0 mm 4 m/s 727 mm Hg 36%
14:00 +29°C° 0 mm 5 m/s 727 mm Hg 37%
15:00 +29°C° 0 mm 7 m/s 727 mm Hg 38%
16:00 +28°C° 0 mm 7 m/s 727 mm Hg 45%
17:00 +26°C° 0 mm 6 m/s 728 mm Hg 52%
18:00 +24°C° 0 mm 6 m/s 728 mm Hg 58%
19:00 +23°C° 0 mm 5 m/s 729 mm Hg 62%
20:00 +22°C° 0 mm 3 m/s 729 mm Hg 66%
21:00 +23°C° 0 mm 2 m/s 730 mm Hg 70%
22:00 +21°C° 0 mm 2 m/s 729 mm Hg 71%
23:00 +22°C° 0 mm 1 m/s 729 mm Hg 72%

24 Giugno, Giovedi

Tempo Temperatura Precipitazioni Vento Pressione Umidità
00:00 +22°C° 0 mm 1 m/s 729 mm Hg 73%
01:00 +21°C° 0 mm 1 m/s 729 mm Hg 75%
02:00 +21°C° 0 mm 1 m/s 729 mm Hg 77%
03:00 +20°C° 0 mm 1 m/s 729 mm Hg 79%
04:00 +21°C° 0 mm 1 m/s 730 mm Hg 78%
05:00 +21°C° 0 mm 1 m/s 730 mm Hg 77%
06:00 +21°C° 0 mm 1 m/s 730 mm Hg 76%
07:00 +23°C° 0 mm 1 m/s 730 mm Hg 66%
08:00 +24°C° 0 mm 1 m/s 730 mm Hg 56%
09:00 +26°C° 0 mm 2 m/s 730 mm Hg 46%
10:00 +27°C° 0 mm 3 m/s 730 mm Hg 42%
11:00 +28°C° 0 mm 4 m/s 730 mm Hg 39%
12:00 +29°C° 0 mm 5 m/s 730 mm Hg 35%
13:00 +29°C° 0 mm 6 m/s 730 mm Hg 38%
14:00 +29°C° 0 mm 6 m/s 730 mm Hg 40%
15:00 +28°C° 0 mm 7 m/s 730 mm Hg 42%
16:00 +27°C° 0 mm 6 m/s 730 mm Hg 45%
17:00 +27°C° 0 mm 6 m/s 730 mm Hg 48%
18:00 +26°C° 0 mm 5 m/s 730 mm Hg 52%
19:00 +25°C° 0 mm 4 m/s 730 mm Hg 54%
20:00 +24°C° 0 mm 3 m/s 731 mm Hg 57%
21:00 +23°C° 0 mm 2 m/s 731 mm Hg 60%
22:00 +21°C° 0 mm 2 m/s 731 mm Hg 63%
23:00 +22°C° 0 mm 1 m/s 731 mm Hg 66%

25 Giugno, Venerdi

Tempo Temperatura Precipitazioni Vento Pressione Umidità
00:00 +21°C° 0 mm 1 m/s 731 mm Hg 69%
01:00 +21°C° 0 mm 1 m/s 731 mm Hg 71%
02:00 +21°C° 0 mm 1 m/s 730 mm Hg 73%
03:00 +20°C° 0 mm 1 m/s 730 mm Hg 75%
04:00 +21°C° 0 mm 1 m/s 730 mm Hg 73%
05:00 +21°C° 0 mm 1 m/s 730 mm Hg 71%
06:00 +19°C° 0 mm 0 m/s 730 mm Hg 69%
07:00 +23°C° 0 mm 1 m/s 730 mm Hg 62%
08:00 +24°C° 0 mm 1 m/s 730 mm Hg 56%
09:00 +26°C° 0 mm 1 m/s 730 mm Hg 49%
10:00 +27°C° 0 mm 2 m/s 730 mm Hg 45%
11:00 +28°C° 0 mm 4 m/s 730 mm Hg 40%
12:00 +30°C° 0 mm 5 m/s 730 mm Hg 36%
13:00 +30°C° 0 mm 5 m/s 730 mm Hg 38%
14:00 +30°C° 0 mm 6 m/s 729 mm Hg 39%
15:00 +30°C° 0 mm 7 m/s 729 mm Hg 41%
16:00 +28°C° 0 mm 6 m/s 729 mm Hg 45%
17:00 +27°C° 0 mm 6 m/s 729 mm Hg 48%
18:00 +26°C° 0 mm 5 m/s 728 mm Hg 51%
19:00 +25°C° 0 mm 4 m/s 729 mm Hg 56%
20:00 +24°C° 0 mm 3 m/s 729 mm Hg 61%
21:00 +23°C° 0 mm 2 m/s 729 mm Hg 66%
22:00 +21°C° 0 mm 2 m/s 729 mm Hg 70%
23:00 +21°C° 0 mm 2 m/s 729 mm Hg 74%
Mostrare altro

Abbiamo bisogno del tuo consenso

Meteoprog e i nostri fornitori di servizi possono memorizzare e accedere a dati personali come cookie, identificatori di dispositivi o altre tecnologie simili sul tuo dispositivo e possono elaborare tali dati per personalizzare i contenuti e gli annunci, nonché fornire funzionalità dei social media e analizzarne il traffico.

  • Archiviare e/o accedere alle informazioni sul tuo dispositivo

    Cookie, identificatori di dispositivi o altre informazioni possono essere memorizzati o resi accessibili sul tuo dispositivo per le finalità sopra indicate.

  • Annunci e contenuti personalizzati, misurazione di annunci e contenuti, approfondimenti sul pubblico e sviluppo di prodotti

    Gli annunci e i contenuti possono essere personalizzati in base a un profilo. È possibile aggiungere più dati per personalizzare meglio annunci e contenuti. È possibile misurare il rendimento degli annunci e dei contenuti. È possibile ricavare informazioni sul pubblico che ha visto gli annunci e i contenuti. Tali dati possono essere utilizzati per sviluppare o migliorare l'esperienza, i sistemi e il software dell'utente.

Cliccando su “Accetto”, acconsenti all'uso di cookie, identificatori di dispositivo, web beacon o altre tecnologie simili. Puoi modificare le impostazioni nel browser del tuo dispositivo.

Per determinati scopi, è possibile fare affidamento su interessi legali, piuttosto che sul consenso. Puoi approfondire questo argomento consultando la nostra Informativa sulla privacy e sui cookie.